Theta_e
299 299 299 299 299 299 298 298 299 298 298 297 298 297 297 297 298 298 298 298 299 299 300 300 301 302 302 303 304 304 304 305 305 305 306 306 306 307 311 312 312 312 313 315 318 319 322 322 324 325 325 327 331 336 340 341 341 341 341 343 344 345 346 345 345 344 343 342 342 342 344 344 343 344 344 344 344 344 344 343 342 343 341 340 341
298 298 298 298 298 299 298 298 297 298 297 297 296 296 296 297 297 298 298 298 298 298 299 299 300 301 301 302 302 303 303 303 304 305 305 305 305 305 308 311 312 312 312 313 316 317 320 321 323 324 324 325 326 327 332 336 339 340 341 341 343 343 344 345 345 344 343 341 341 342 343 343 342 342 343 343 343 343 343 343 343 342 341 340 340
298 297 297 297 298 297 297 297 296 296 296 296 296 296 296 297 297 297 297 297 297 298 298 298 299 299 300 300 301 302 302 303 303 304 304 305 305 305 307 308 310 312 312 312 313 315 317 319 321 323 324 324 324 327 327 331 337 337 339 340 341 343 342 344 345 344 343 343 342 341 342 343 342 342 342 342 342 342 342 341 342 342 341 340 339
298 298 297 297 296 296 297 296 296 296 296 295 295 296 296 297 297 298 297 297 297 297 298 298 298 298 299 300 300 300 300 301 302 303 303 304 305 305 306 307 308 310 311 311 312 313 315 316 317 319 321 323 324 324 326 326 330 336 337 339 340 341 342 342 343 344 343 343 342 341 342 341 341 340 341 341 342 341 341 341 341 341 340 339 339
297 297 297 296 296 296 296 296 296 296 295 295 296 296 296 296 296 297 296 296 296 297 298 297 296 297 297 298 298 299 300 300 301 301 302 303 303 303 304 305 306 307 308 311 311 311 312 313 314 316 318 320 323 325 325 327 327 327 332 336 338 340 341 342 342 343 343 342 342 342 341 341 341 340 341 341 341 341 341 341 340 340 339 338 339
296 296 296 296 296 296 295 295 296 295 295 295 294 294 294 295 295 295 296 295 295 296 295 295 296 296 296 297 297 297 298 298 299 300 301 301 303 303 303 304 304 305 306 308 309 310 310 311 312 314 315 317 319 322 324 325 326 326 326 331 336 338 340 341 342 343 344 344 344 343 342 341 341 341 340 341 341 341 341 341 340 340 340 339 339
296 295 295 295 295 294 295 294 295 295 293 294 294 294 294 294 294 294 294 294 294 295 295 294 295 295 296 296 296 296 297 296 298 299 299 301 301 303 303 303 304 304 305 304 304 306 310 311 310 311 312 313 315 317 319 322 325 327 327 328 331 335 335 339 340 339 342 343 342 342 342 341 341 342 341 341 340 341 341 341 340 340 339 338 338
295 295 294 294 294 294 294 294 294 294 294 293 294 293 293 294 294 294 292 293 293 293 294 294 294 294 295 295 296 296 296 296 297 298 299 300 300 301 302 303 303 303 304 303 303 304 306 309 309 310 311 312 313 314 317 320 321 322 324 328 329 333 335 335 337 340 339 340 339 340 342 340 340 340 340 339 340 341 340 340 339 339 339 339 338
294 294 293 294 294 294 294 294 294 293 293 293 292 293 293 293 293 294 293 292 292 292 293 293 292 293 294 294 295 295 296 296 297 297 299 299 300 300 301 302 303 303 303 303 304 304 304 307 310 311 311 310 311 313 314 317 319 321 323 323 325 328 334 335 336 337 339 339 339 339 340 340 340 340 340 341 340 338 340 339 339 339 339 338 338
294 294 293 293 293 293 293 293 293 293 292 292 292 292 293 293 292 293 292 292 291 291 290 291 292 292 293 293 294 295 296 296 297 298 297 298 299 300 301 301 302 302 302 303 303 303 303 305 307 308 308 309 312 313 314 315 317 320 322 324 324 325 324 330 334 336 337 338 339 340 340 339 339 341 341 340 340 339 340 340 339 339 339 338 337
293 293 292 292 292 292 292 293 293 292 291 291 291 292 292 293 292 291 292 292 291 291 291 291 292 292 292 292 293 294 295 296 297 297 297 298 298 300 302 301 301 302 302 303 303 303 304 304 304 304 304 307 309 310 311 313 314 316 319 322 325 326 327 325 327 332 335 337 335 338 340 340 340 340 341 340 340 340 340 340 339 339 338 338 337
293 292 292 292 292 292 292 292 292 292 291 290 290 291 291 291 290 290 290 290 291 291 292 291 290 290 290 292 294 295 295 296 296 297 297 298 299 299 299 301 301 301 302 303 303 303 303 304 303 304 304 306 309 311 311 311 312 314 315 317 319 322 324 326 326 329 332 335 337 336 338 340 341 341 341 340 340 340 340 339 339 339 338 338 337
292 292 291 291 291 291 291 291 292 291 290 290 291 291 291 290 290 290 289 289 289 291 291 291 289 289 291 291 291 292 293 294 294 295 296 297 298 299 300 300 301 301 301 302 302 302 303 303 303 303 304 305 306 307 309 311 312 313 316 317 318 320 323 324 324 326 332 333 335 338 338 337 339 341 341 341 339 338 339 339 339 339 339 338 338
292 292 291 291 290 290 290 290 291 291 290 290 290 290 290 290 290 289 290 288 288 290 290 290 288 286 285 286 288 292 293 293 293 294 296 298 299 300 300 300 300 300 300 299 300 301 302 302 303 303 304 305 306 306 308 308 310 314 315 317 318 321 324 325 326 327 326 332 334 336 338 338 337 337 341 342 341 340 339 338 340 340 339 338 338
292 291 291 290 290 290 290 290 290 290 289 289 289 289 290 290 290 288 287 289 288 290 290 291 286 287 287 286 285 284 289 291 296 298 297 296 295 294 294 294 295 297 297 298 299 300 301 302 303 304 305 305 305 305 304 304 309 306 310 314 316 320 323 323 326 328 329 329 333 335 336 338 339 338 337 341 342 341 341 340 340 339 339 338 338
291 291 290 290 290 289 289 289 289 290 289 288 288 288 289 289 289 289 288 285 287 287 290 290 288 286 282 284 283 284 282 287 287 290 292 291 291 292 294 294 296 298 297 296 297 297 298 300 301 302 302 302 302 303 303 303 303 300 300 302 305 312 314 320 322 325 329 331 332 333 335 337 339 340 339 339 342 342 341 340 338 339 338 339 338
291 290 290 289 290 289 289 289 289 289 289 288 288 288 288 289 289 288 287 286 285 286 288 289 288 289 286 283 282 282 282 283 285 285 289 290 292 293 293 293 293 293 295 295 297 298 299 299 300 300 301 302 302 303 303 304 304 304 303 298 300 308 316 321 323 324 324 328 331 332 333 336 337 339 338 338 339 342 341 341 340 339 339 339 338
290 290 289 289 289 289 289 288 288 288 289 288 288 288 288 288 288 288 287 287 286 285 285 288 288 289 289 288 286 282 281 284 284 280 287 288 288 290 292 293 294 293 294 294 295 296 296 296 297 297 298 300 300 300 301 301 301 302 302 304 307 310 311 311 313 315 322 329 330 331 331 333 336 337 338 338 336 339 340 341 339 337 338 338 338
290 290 289 289 289 288 288 288 288 288 288 287 287 287 287 288 288 288 287 287 286 284 284 285 287 287 288 289 288 288 287 284 281 282 280 285 288 288 289 291 292 293 293 293 294 294 295 295 296 297 297 298 299 299 299 301 300 300 300 301 304 306 308 308 309 311 314 318 322 325 330 331 333 336 337 337 336 335 340 340 338 338 337 338 339
289 289 289 288 288 288 288 288 287 287 287 287 286 287 287 288 288 288 287 286 286 284 284 285 283 284 287 286 286 287 288 287 286 283 282 280 282 288 289 290 291 292 292 292 292 292 293 294 294 295 296 297 298 299 299 300 301 302 301 303 304 307 308 309 309 309 310 312 318 323 328 331 332 333 337 338 337 335 336 338 339 337 337 337 338
289 288 288 288 287 287 287 287 286 286 286 286 286 287 286 286 286 286 286 286 286 286 285 284 284 283 284 284 285 285 286 286 286 286 282 281 280 282 284 288 289 289 290 291 291 292 292 293 293 294 294 294 296 297 298 298 298 299 300 302 305 307 309 309 309 309 309 310 313 317 322 326 332 333 334 338 338 336 336 336 338 340 339 339 338
288 288 288 287 287 287 286 286 286 286 286 286 286 286 286 286 286 286 286 285 285 285 284 284 284 284 284 284 283 283 283 283 284 284 284 284 280 281 283 283 282 285 288 288 289 290 291 291 292 293 293 294 295 295 295 296 298 299 299 300 302 305 307 308 309 310 310 310 311 312 315 319 322 329 332 334 338 337 334 335 334 338 339 338 337
287 287 287 287 286 286 286 285 285 285 285 285 285 285 285 285 285 285 285 284 284 284 284 284 284 284 284 283 282 282 281 281 281 282 282 281 281 281 282 283 282 282 285 287 288 289 290 291 291 292 292 292 293 294 294 295 295 296 298 301 303 305 306 308 308 307 308 308 310 312 314 315 317 321 325 331 334 338 335 334 336 336 338 337 336
287 286 286 286 286 285 285 285 284 284 284 285 285 285 285 284 284 284 284 284 284 283 283 283 283 283 283 283 283 283 283 282 283 283 282 281 281 280 280 282 281 282 284 285 287 287 289 289 290 290 291 292 292 293 293 294 295 295 296 297 300 302 304 305 305 305 306 306 306 307 309 312 315 316 320 323 331 334 338 336 335 335 334 337 337
285 285 286 286 285 285 284 284 284 284 284 284 284 284 284 284 283 283 283 283 283 283 282 282 283 282 282 283 283 283 282 284 284 283 283 283 282 279 280 281 278 279 282 283 283 286 287 287 289 289 290 290 291 292 292 293 294 295 296 297 300 301 302 304 304 305 305 305 306 307 308 309 312 314 317 319 325 330 335 336 333 336 338 338 338
285 284 285 285 284 284 284 283 283 283 283 283 283 283 283 283 283 282 282 283 283 282 282 282 282 282 282 282 282 282 282 283 283 282 282 281 279 279 278 279 279 278 280 281 282 282 284 287 288 289 289 290 290 292 292 293 293 294 295 295 297 299 301 304 305 304 305 305 306 306 306 307 309 311 314 318 320 326 331 334 334 335 337 336 338
284 284 284 283 283 283 283 282 282 282 283 282 283 283 283 282 282 282 282 282 282 282 281 281 281 281 282 281 281 281 282 282 282 282 282 281 280 280 279 276 276 278 277 280 280 281 281 284 287 286 288 288 289 289 290 292 292 293 292 292 294 297 300 302 304 305 305 305 305 305 305 306 307 310 312 315 317 319 329 331 334 332 332 336 332
283 283 283 282 282 282 282 282 282 282 282 282 282 281 282 281 281 281 280 282 281 281 281 281 281 281 281 281 281 281 281 281 281 281 281 282 281 281 280 278 275 273 276 276 278 279 283 281 284 286 287 288 289 289 290 291 291 293 292 294 295 296 298 300 302 305 306 306 306 306 306 306 307 309 311 312 313 315 321 326 329 329 325 326 325
282 282 281 281 281 281 281 281 281 281 281 281 281 280 280 280 280 280 280 280 280 280 280 280 281 281 281 281 281 281 281 281 281 281 281 281 281 281 280 278 277 275 273 274 276 277 279 282 279 283 286 287 288 289 290 290 292 292 293 294 295 296 297 300 302 304 304 305 305 306 307 307 307 308 309 310 312 313 316 320 321 323 324 324 325
281 281 281 280 280 280 280 280 280 280 280 280 280 279 279 279 279 279 279 280 279 280 280 280 280 280 280 280 280 280 280 281 280 281 281 281 280 280 280 280 279 276 275 274 274 278 278 280 281 280 283 284 286 287 288 288 290 290 290 291 293 295 297 298 300 302 304 304 305 306 307 308 308 308 308 309 310 313 315 317 321 322 323 325 328
280 280 279 279 279 279 279 279 279 279 279 279 279 279 279 278 278 278 279 279 278 278 279 279 279 279 279 279 279 279 280 280 280 280 280 280 279 280 279 279 279 278 277 276 273 276 280 277 279 281 282 283 285 286 287 287 288 288 288 289 290 291 292 293 295 298 300 302 303 304 305 306 308 310 309 309 312 313 314 316 319 321 321 323 328
279 279 279 278 278 278 278 278 278 278 278 278 278 278 278 278 278 278 278 278 277 277 277 278 279 279 278 278 278 278 279 279 279 279 279 279 279 278 278 278 278 278 277 275 273 273 278 278 278 280 282 282 283 282 283 284 285 286 285 286 287 288 288 291 294 297 300 301 303 304 304 305 305 307 310 311 312 313 314 315 317 320 322 323 326
278 278 278 278 277 277 277 277 277 277 277 277 277 277 277 276 277 277 276 276 276 276 276 276 277 277 277 277 277 277 278 277 277 277 277 278 278 278 278 277 276 277 276 275 274 274 277 280 279 280 281 281 280 281 281 282 283 285 287 287 288 289 291 293 294 294 297 300 301 302 303 304 304 305 306 308 310 312 313 315 316 318 319 321 323
277 277 277 277 277 276 276 276 276 276 276 276 276 276 275 275 275 275 275 275 274 274 274 274 275 276 276 275 275 275 276 275 275 275 276 276 276 276 275 275 275 275 276 275 274 274 273 277 277 279 279 281 279 281 280 279 280 282 283 285 287 290 291 293 293 294 296 298 301 303 303 304 304 305 305 305 307 310 313 314 315 316 318 319 319
277 276 276 276 276 276 276 276 276 275 275 275 275 274 274 273 273 273 273 273 272 272 272 273 273 274 273 273 273 274 274 273 273 274 275 275 274 274 274 274 274 274 275 275 274 272 273 274 277 276 277 278 277 277 279 279 280 281 280 281 282 285 286 288 292 294 296 299 302 303 303 304 304 304 305 305 305 306 308 311 314 315 316 318 318
275 276 276 275 275 275 274 274 274 274 274 273 273 273 273 272 272 271 272 271 271 271 271 271 271 271 271 271 271 272 272 271 272 272 273 273 272 272 272 273 274 273 274 274 274 273 273 273 274 275 276 276 276 278 278 279 280 280 281 282 283 283 284 286 290 294 296 299 300 301 303 303 304 304 304 305 305 306 307 309 312 314 315 315 315
275 275 275 275 274 273 273 273 273 272 272 272 272 271 271 271 271 271 271 270 270 270 270 270 271 271 270 270 270 271 271 270 270 270 271 270 271 271 271 272 272 272 273 274 274 274 273 272 273 275 276 275 276 277 277 276 278 280 282 283 284 285 287 290 292 294 295 298 299 300 301 302 303 303 304 305 305 306 307 308 310 313 313 313 313
274 274 273 273 273 272 272 272 271 271 271 271 271 270 270 271 270 270 270 270 270 270 270 270 270 270 270 270 270 270 270 269 269 269 270 270 270 270 270 271 271 272 272 272 273 273 273 273 273 273 274 274 274 275 276 278 279 279 281 284 286 287 288 289 291 293 295 297 298 300 300 300 301 302 303 304 305 305 306 307 309 311 311 310 311
272 272 272 271 272 271 271 271 270 270 270 270 270 270 270 270 270 270 270 270 270 270 270 271 271 271 271 271 270 270 270 270 269 269 270 270 270 270 270 270 271 271 271 271 272 272 272 272 272 273 273 274 274 273 276 278 278 278 277 278 280 284 288 290 291 293 295 297 298 299 299 300 300 302 303 303 304 304 305 305 307 310 309 309 310
271 270 270 270 270 270 270 270 270 270 270 270 270 270 270 270 270 270 270 270 270 270 271 271 271 271 271 272 271 271 270 270 270 270 270 270 270 270 271 271 271 271 271 271 271 272 271 272 271 272 273 273 274 275 276 277 276 278 280 279 278 280 285 290 291 292 295 296 296 299 299 299 300 301 301 302 303 305 305 304 305 307 308 309 310
270 270 269 269 269 269 269 269 269 270 269 269 270 270 270 270 270 270 271 271 271 271 271 271 271 271 271 272 272 272 272 274 275 275 275 275 271 270 271 272 271 271 271 271 271 271 271 271 271 272 272 272 273 273 274 275 276 277 281 285 284 286 288 290 291 294 295 295 296 296 296 297 298 299 303 305 305 303 303 302 304 304 307 309 310
268 268 268 268 268 268 268 269 269 269 269 270 271 272 273 271 271 272 272 272 272 271 271 271 271 272 272 272 272 275 275 276 276 276 277 277 277 275 273 273 272 272 272 271 271 271 271 270 271 271 271 271 273 273 273 274 276 279 280 280 280 284 288 289 291 292 295 295 294 293 295 297 297 298 299 300 306 306 307 308 308 310 307 308 310
267 267 267 267 267 268 268 269 269 269 269 270 272 273 274 275 273 272 272 272 272 272 272 272 271 271 272 273 273 274 274 275 274 276 277 277 278 278 278 278 278 275 273 272 272 273 272 271 272 272 272 272 274 275 275 276 277 277 278 281 282 283 285 286 285 288 291 294 292 290 290 292 293 294 297 299 302 305 309 310 307 307 307 308 309
266 267 267 267 268 268 268 268 268 269 269 271 272 273 274 275 275 273 273 273 272 272 272 272 272 272 272 272 272 272 272 273 273 273 274 276 277 278 278 278 279 279 280 276 274 273 274 273 273 274 274 273 274 275 276 276 277 278 278 280 282 283 283 285 286 285 290 291 288 287 287 290 291 291 292 295 301 306 309 309 308 308 308 308 309
266 266 266 267 268 268 268 268 268 268 268 271 272 273 274 275 276 275 273 273 272 272 272 272 272 271 271 271 271 272 272 275 274 273 273 273 275 277 277 278 278 279 279 280 281 277 276 275 274 274 275 275 275 276 277 277 278 278 279 280 280 282 283 284 286 287 288 290 288 286 285 287 290 290 290 294 298 303 309 308 308 308 308 307 308
266 266 267 267 267 267 267 267 267 267 268 270 272 273 274 275 276 276 273 273 272 272 272 271 271 271 272 271 271 271 272 272 272 272 272 272 272 272 273 273 273 275 278 279 279 280 279 276 275 274 276 277 276 277 278 279 277 276 276 276 278 280 282 284 287 287 289 289 286 285 284 286 289 290 289 293 297 301 306 310 308 308 308 308 308
266 266 266 266 266 266 266 266 266 266 267 270 272 273 274 275 276 276 273 272 272 271 272 272 272 272 272 272 272 272 272 272 273 273 272 272 272 272 272 272 273 274 274 275 276 276 277 277 276 276 276 277 277 277 278 278 278 278 279 279 280 281 283 285 286 287 287 288 287 286 282 287 289 290 290 292 296 300 306 309 307 307 307 307 307
267 267 266 267 266 265 266 266 266 265 267 270 272 273 274 275 276 273 272 272 272 272 272 272 273 273 273 273 272 272 273 272 274 277 276 274 273 272 272 272 273 274 274 277 278 279 278 277 277 277 278 278 280 279 279 278 278 279 280 281 281 281 281 281 281 285 285 288 288 287 285 286 289 289 289 292 295 298 306 310 307 307 307 307 307
266 266 266 266 266 266 265 265 265 265 266 268 271 273 274 275 274 272 272 272 272 271 272 273 273 273 273 273 273 273 273 273 276 278 278 277 273 272 272 272 273 273 273 275 278 280 280 280 281 282 283 283 283 284 283 284 282 281 280 279 278 281 281 280 282 283 284 287 288 288 287 285 288 288 288 290 293 296 304 310 309 306 307 307 307
265 265 265 265 265 266 265 265 265 265 265 268 272 273 274 275 275 272 272 271 271 272 272 273 273 274 274 276 276 274 273 273 277 278 278 276 273 273 272 272 272 272 273 274 275 276 280 281 281 281 282 282 284 284 283 285 285 284 280 277 279 281 280 282 281 283 285 287 287 288 286 285 287 289 288 290 291 295 302 308 308 308 305 306 306
265 265 265 265 265 265 265 265 267 267 267 269 271 273 274 275 274 272 272 271 271 271 272 272 273 273 274 274 275 275 275 275 278 278 278 277 274 273 273 273 272 272 274 275 275 275 275 275 276 277 278 281 281 280 281 283 284 284 282 281 282 281 280 282 283 283 282 284 287 288 285 285 286 287 287 287 288 295 302 306 306 308 308 307 308
Wind_Speed
3 3 3 4 4 4 4 4 5 5 5 6 6 6 6 6 6 7 7 7 7 7 8 8 7 7 7 8 8 8 8 8 8 8 8 8 8 9 12 11 14 17 18 19 20 21 21 22 22 22 23 23 23 22 23 24 23 22 23 22 21 21 19 18 17 16 17 20 22 22 21 22 25 25 24 22 23 25 25 24 26 23 22 21 20
3 3 3 4 4 4 4 4 4 4 5 5 6 6 6 6 6 6 6 7 7 7 7 7 8 8 8 8 8 8 8 8 8 8 8 8 8 9 12 12 12 16 18 20 21 21 21 22 22 21 22 23 24 23 23 23 24 23 23 23 22 21 20 19 18 17 18 20 20 21 22 23 28 26 24 26 26 26 27 28 25 25 23 22 21
3 3 3 3 3 4 4 4 4 4 5 5 5 6 6 6 6 6 6 6 6 6 7 7 7 7 7 8 8 8 8 8 8 8 9 9 9 9 10 14 14 15 16 19 20 20 21 21 22 22 22 22 23 23 24 24 24 25 24 24 24 22 22 20 19 19 20 20 21 23 22 23 23 22 22 20 24 26 27 29 24 24 23 22 22
2 2 3 3 3 4 4 4 4 4 5 5 6 6 6 6 7 6 7 6 6 6 6 7 7 7 8 9 8 8 8 8 9 9 9 9 9 10 10 10 13 14 14 17 19 20 21 21 21 21 22 22 22 22 23 23 24 23 24 24 25 25 22 21 20 19 19 20 20 23 21 22 22 20 25 25 26 26 26 26 25 25 22 22 20
2 3 3 2 3 3 3 4 3 4 5 6 7 7 6 6 6 6 6 6 7 7 6 7 8 8 8 8 8 9 9 9 9 9 10 10 10 10 10 10 11 13 15 15 17 19 19 20 20 21 21 22 22 22 22 22 23 24 24 25 25 25 26 24 21 20 22 24 21 21 24 25 28 28 25 26 25 26 26 25 25 25 22 23 21
3 3 3 3 3 3 3 4 3 4 5 5 5 6 7 7 7 6 6 6 6 7 7 7 7 7 8 8 8 9 8 9 10 10 10 10 10 10 10 10 10 10 9 12 14 15 18 19 18 19 19 20 21 22 22 22 22 23 24 24 25 25 26 24 24 21 22 24 23 24 22 25 27 29 31 24 25 24 24 26 27 24 22 23 21
3 2 2 2 3 3 3 3 3 5 5 5 6 6 6 6 6 7 7 7 7 7 7 8 8 9 8 8 9 9 9 10 10 10 10 11 10 10 10 10 10 9 9 9 9 12 12 14 17 18 19 20 21 22 24 24 22 22 23 23 24 26 26 25 24 25 24 24 23 22 24 25 26 26 26 30 32 27 28 27 24 23 25 26 25
2 1 1 2 3 3 3 4 4 4 5 5 6 6 6 6 6 7 7 8 8 8 7 8 9 9 9 9 9 9 10 10 10 10 10 10 10 10 10 10 10 10 10 10 10 10 14 15 17 18 18 19 19 21 22 24 24 23 23 23 23 24 26 26 26 26 24 22 22 23 22 23 22 24 24 27 27 29 30 28 25 26 26 26 25
1 0 1 2 2 3 4 4 4 5 5 6 6 6 6 6 7 6 7 8 8 10 9 8 9 9 10 10 10 10 10 10 10 10 9 10 11 11 11 10 9 10 10 10 9 9 11 13 13 15 16 18 20 21 22 23 24 24 24 23 23 24 25 25 26 25 23 22 22 25 23 24 25 25 29 30 27 28 27 26 29 27 25 25 24
1 0 2 2 3 3 4 4 4 5 6 6 6 6 6 7 7 7 7 7 8 9 10 9 9 9 10 11 11 10 10 11 11 10 11 11 11 11 10 9 9 9 10 10 10 10 9 11 14 15 16 17 20 20 20 21 21 23 24 24 23 23 25 26 26 25 23 20 22 23 23 24 25 27 30 33 33 32 35 30 29 28 27 26 28
1 1 2 2 3 4 4 4 4 5 6 6 6 7 7 6 7 8 7 7 8 9 9 9 9 10 10 12 12 12 11 11 11 11 11 12 10 9 8 10 10 10 10 10 9 9 10 9 9 8 9 12 14 17 18 19 20 21 23 24 24 23 23 25 26 26 24 22 24 26 25 25 26 26 28 30 34 36 35 31 32 28 29 28 30
1 1 2 3 3 3 4 4 5 5 6 6 6 6 7 8 9 8 9 8 8 8 8 9 10 12 13 12 10 11 13 12 12 12 12 10 9 9 9 9 9 9 9 9 9 9 10 9 9 9 9 10 13 13 16 18 19 21 22 23 24 25 24 24 25 26 27 26 21 25 28 27 27 27 28 29 33 37 35 32 29 27 28 31 31
1 2 2 2 3 4 4 5 5 5 5 6 7 8 8 8 8 7 8 9 8 7 7 8 10 11 8 10 11 13 14 13 14 14 11 9 8 8 8 8 8 8 8 8 9 10 9 10 10 9 9 8 9 12 13 15 16 19 21 22 22 23 24 24 25 26 27 27 25 24 27 29 28 27 27 28 29 33 34 28 29 29 32 36 34
2 2 2 3 3 4 5 5 5 5 5 6 8 9 9 8 7 7 7 8 8 7 7 7 7 8 13 13 8 7 7 9 12 10 8 7 7 8 8 8 9 9 9 10 10 10 10 10 10 10 9 9 9 8 8 9 10 14 17 18 20 21 22 24 24 25 26 27 27 27 25 28 30 29 26 24 24 27 32 30 32 37 39 37 35
3 3 2 3 4 5 5 5 5 5 5 6 7 8 8 8 8 8 8 7 8 7 6 4 7 8 10 11 11 14 4 5 3 0 4 6 8 11 13 12 13 11 10 10 9 9 9 9 10 10 9 9 9 10 10 11 11 10 11 13 15 20 22 24 25 26 27 28 28 29 28 28 26 28 29 27 26 28 33 34 38 42 37 39 35
3 3 3 4 4 5 5 5 5 5 5 6 7 8 8 8 8 8 8 9 6 6 5 5 5 7 8 5 11 8 13 3 9 9 8 13 14 13 9 9 9 8 9 11 11 11 10 10 11 11 11 12 11 10 10 10 14 16 19 21 23 22 25 26 25 26 28 28 29 30 30 29 29 28 30 29 26 28 29 32 32 34 39 37 34
3 3 3 4 5 5 5 5 5 5 5 6 7 8 8 8 8 8 8 8 9 6 6 5 6 5 5 8 7 6 7 11 14 15 6 5 4 7 9 12 13 11 10 11 11 10 10 11 11 11 12 11 11 10 10 10 10 10 12 15 17 17 16 18 21 25 28 29 29 30 32 29 30 28 30 28 30 31 31 34 35 36 37 37 34
3 3 4 4 5 5 6 6 6 5 5 6 7 8 9 9 8 7 9 9 8 8 7 5 5 6 7 8 7 8 13 13 9 12 7 8 13 8 9 8 9 11 11 11 11 11 10 12 13 13 13 12 12 12 11 12 12 11 11 11 12 13 17 24 28 26 24 26 29 31 32 34 29 30 28 28 30 30 32 34 42 43 40 41 34
3 4 4 5 5 6 6 6 6 6 6 6 7 9 8 8 7 7 8 7 7 8 8 7 6 6 7 9 10 10 11 10 10 11 17 9 5 9 10 9 10 11 12 11 10 10 11 11 12 12 12 12 12 12 12 12 14 14 16 17 18 19 20 21 24 28 27 28 28 28 32 35 35 32 30 29 31 33 30 30 35 39 38 39 34
4 5 5 6 5 6 6 5 6 6 6 7 8 8 8 7 8 8 8 7 8 8 8 6 6 7 6 8 9 10 11 12 13 11 13 17 19 5 8 9 10 9 10 11 12 12 12 10 10 11 10 11 12 12 11 12 12 13 12 16 17 18 20 20 20 23 26 26 26 29 30 35 36 37 34 31 32 34 34 33 34 37 35 38 33
5 5 5 6 5 5 5 6 6 6 6 7 8 9 10 9 9 8 8 8 7 7 8 7 7 8 7 8 8 9 10 10 11 10 11 13 20 16 11 7 10 12 10 11 10 10 10 12 12 12 12 13 13 13 12 12 13 13 14 17 18 18 17 17 18 21 23 24 26 28 30 31 36 37 38 34 31 35 37 35 38 39 45 38 39
5 6 5 6 5 5 5 6 6 7 7 8 9 9 9 9 9 9 9 9 8 8 8 8 7 8 8 8 8 9 10 9 10 10 12 12 15 20 17 14 15 11 7 10 13 13 13 12 13 13 12 10 10 12 13 14 13 12 15 21 21 20 18 18 20 21 21 23 24 25 28 30 31 36 39 39 35 33 35 33 39 35 33 37 38
4 4 5 5 5 5 5 6 6 6 7 8 9 8 8 8 8 9 10 10 9 9 10 9 9 9 9 9 9 9 10 10 10 9 11 11 12 17 18 17 16 18 9 8 11 13 12 12 12 11 11 12 12 11 13 13 17 17 23 21 19 19 21 20 20 21 20 21 23 24 25 27 29 31 39 43 40 33 34 36 36 40 38 34 39
4 4 4 3 3 4 5 6 6 7 8 7 8 7 7 8 8 8 8 9 9 9 9 9 10 9 10 9 10 10 11 11 11 11 10 11 12 16 16 15 18 16 7 7 11 13 13 14 12 11 11 11 12 12 13 14 15 22 19 23 27 29 26 24 22 22 25 26 27 29 29 29 29 30 32 39 43 39 34 36 36 38 42 40 42
4 3 3 3 3 4 5 5 5 6 7 7 8 8 8 8 8 9 9 10 9 9 9 9 10 9 9 9 10 10 11 10 11 11 11 11 12 14 15 12 16 20 14 9 10 9 11 13 12 11 12 12 12 13 14 14 14 17 19 17 24 25 26 25 25 25 26 26 27 27 31 31 31 31 31 35 41 42 39 33 40 35 34 42 42
3 3 2 3 4 5 6 7 7 8 8 9 9 8 9 8 9 9 10 9 9 10 10 11 11 12 10 10 11 11 11 11 11 11 11 11 12 13 14 13 14 18 16 15 13 13 11 9 11 12 12 12 12 12 12 14 15 18 21 19 23 26 25 22 22 24 25 26 28 28 30 33 31 31 30 33 38 42 40 37 32 38 40 40 43
4 3 3 3 5 6 7 8 8 8 8 8 8 8 8 8 8 9 9 9 10 9 10 11 11 12 12 11 11 11 11 11 11 12 12 12 13 12 11 14 15 15 17 14 16 18 17 10 10 12 13 14 13 13 14 14 17 23 26 22 19 24 22 23 23 26 28 28 28 29 30 31 33 31 31 30 34 41 42 38 34 37 37 38 41
3 3 4 4 5 6 7 8 8 8 8 9 9 8 8 8 8 9 10 8 9 11 10 11 12 13 13 13 12 13 12 12 12 12 12 13 12 12 12 14 17 19 14 18 15 19 15 13 10 12 13 12 13 13 14 17 15 22 22 16 16 18 26 27 27 24 25 25 26 28 29 32 32 32 31 30 31 33 37 36 33 31 33 34 36
4 3 4 5 5 6 7 8 8 8 8 8 9 8 8 8 9 9 10 9 10 11 10 11 11 12 11 13 13 12 12 12 12 12 13 13 13 13 15 17 16 16 17 16 19 18 15 12 13 10 10 11 11 11 13 12 13 14 12 13 14 15 19 25 27 29 29 30 29 29 29 31 33 31 31 30 31 32 34 35 32 28 32 34 37
4 4 4 5 6 8 8 8 8 8 8 8 8 8 8 8 9 10 9 10 10 10 10 10 11 11 12 12 12 12 11 12 13 13 13 15 16 15 16 17 16 18 16 18 19 14 19 16 15 13 10 12 13 13 13 14 18 20 17 18 17 16 21 25 25 25 24 24 24 22 26 29 31 31 31 31 30 32 33 35 34 30 31 34 37
5 5 6 6 6 6 7 7 7 8 8 8 8 8 8 8 9 9 9 9 10 10 10 10 10 11 12 14 13 14 15 15 16 15 16 15 16 16 16 15 17 18 20 19 21 17 14 21 19 13 15 16 13 13 13 14 16 19 18 18 20 23 28 25 31 32 31 30 27 25 24 25 29 29 29 30 30 31 32 33 36 33 32 33 38
5 6 6 6 7 7 6 7 8 8 8 8 8 8 8 9 9 9 9 10 11 11 11 10 10 11 13 15 15 14 14 14 15 15 16 15 16 17 17 17 18 20 18 19 22 24 14 21 24 18 17 18 18 21 20 17 18 24 20 22 24 31 25 21 27 28 26 27 27 27 26 25 25 25 25 27 29 30 32 34 36 36 34 35 37
5 6 6 7 7 7 7 8 8 8 8 8 7 7 8 9 9 10 10 11 12 11 11 13 12 13 14 15 15 16 16 16 16 16 15 16 16 16 17 17 15 16 20 18 19 20 18 19 21 15 17 17 19 19 20 18 18 17 18 18 19 18 18 18 18 24 28 28 30 29 27 25 24 24 24 24 26 28 31 33 36 37 34 32 35
6 6 7 6 6 7 8 8 9 9 9 8 8 8 8 9 10 8 9 10 11 12 11 13 13 11 12 14 15 14 15 16 16 16 16 15 16 16 16 18 17 17 18 18 18 18 23 20 20 16 18 14 17 16 19 20 21 20 21 19 17 18 17 16 15 16 26 29 26 25 25 24 25 24 25 26 27 27 29 32 35 37 34 34 32
6 6 6 6 7 7 8 8 8 8 8 8 7 8 8 9 10 10 9 10 11 12 12 13 13 12 14 14 15 14 13 16 16 16 16 17 17 18 19 17 19 19 19 18 18 20 21 22 19 20 12 16 18 20 20 19 20 21 22 22 21 19 18 20 19 15 23 27 28 26 25 24 24 24 24 25 26 26 26 29 34 36 33 32 32
6 5 6 6 7 7 8 8 8 8 8 8 7 8 9 9 10 11 10 11 11 11 13 13 13 12 13 14 14 14 15 17 16 16 15 17 16 16 18 18 18 20 19 19 20 19 18 23 19 15 16 14 16 18 17 19 20 22 19 19 20 21 21 21 21 18 20 27 30 30 26 23 23 24 25 25 24 25 25 28 32 35 33 31 32
6 5 5 5 6 7 7 8 7 7 7 7 8 9 9 9 10 10 11 11 11 12 12 13 13 13 13 14 14 14 16 18 17 16 16 19 17 16 17 16 18 18 16 16 17 16 17 21 20 16 15 15 17 18 20 19 20 20 21 20 20 20 19 18 16 16 23 31 31 30 25 22 23 25 26 26 25 25 24 26 30 33 32 32 32
5 5 5 5 5 6 7 7 7 7 7 7 8 9 9 9 10 10 10 11 11 11 12 12 12 12 12 14 14 16 18 18 17 17 18 19 18 18 19 18 17 17 18 18 17 17 18 19 17 20 15 17 17 18 18 18 17 19 18 16 16 18 17 16 15 14 14 14 13 16 17 20 22 26 28 27 27 25 24 25 30 33 32 31 31
5 5 5 5 5 6 7 7 7 7 7 8 8 9 9 10 10 10 10 11 11 11 11 13 14 15 17 17 18 17 18 18 19 20 19 20 16 21 19 18 18 18 18 17 17 18 19 19 18 18 18 18 17 19 17 17 19 18 18 20 20 18 16 15 15 13 13 15 18 20 16 14 16 17 20 23 26 26 26 26 28 34 31 31 32
5 5 5 5 6 6 6 6 7 6 7 8 8 9 9 9 9 9 9 11 13 14 15 15 14 15 16 17 17 18 19 19 20 19 20 19 17 19 18 17 17 18 17 17 16 16 16 16 16 16 15 17 15 16 17 17 19 19 16 16 19 19 17 14 14 15 13 12 12 8 9 11 14 20 26 27 26 24 23 23 28 33 34 31 32
4 4 4 5 6 7 7 7 7 7 7 7 7 7 7 8 9 10 12 13 13 14 15 15 16 16 16 18 18 19 19 25 29 27 26 25 19 17 16 16 17 16 17 15 15 14 15 15 15 17 15 16 17 16 18 16 16 17 16 13 14 16 16 14 13 13 12 14 9 7 8 7 10 11 11 11 14 20 22 27 25 34 36 32 33
4 4 5 6 7 7 7 7 7 6 7 6 8 13 13 10 11 10 11 12 13 14 15 16 16 15 17 16 18 25 28 30 31 32 33 33 33 27 21 20 18 16 16 15 15 13 14 17 14 15 16 15 19 16 20 19 18 18 18 18 18 17 15 16 14 10 10 9 7 8 7 5 7 11 12 14 14 13 13 15 18 22 32 34 34
5 4 5 7 7 7 7 6 6 6 7 6 12 14 15 18 13 12 12 13 13 13 15 14 16 18 17 17 16 21 22 24 23 30 30 32 31 32 34 34 30 22 17 17 15 14 13 15 15 14 16 16 16 17 17 19 17 19 18 15 15 17 16 10 7 3 4 2 3 5 8 6 6 10 11 12 14 14 13 16 22 28 31 34 34
5 5 6 7 7 6 5 6 6 7 7 10 14 15 16 17 16 13 12 12 12 13 13 14 15 16 17 16 17 14 16 19 19 21 25 30 32 32 33 32 32 34 32 25 19 16 16 15 16 15 12 18 15 17 17 15 18 17 18 16 17 16 17 14 7 6 1 7 7 7 11 7 6 9 11 13 12 13 16 19 26 29 32 33 35
5 6 7 7 6 6 6 6 6 7 8 11 14 15 16 17 18 16 11 12 13 13 15 15 16 17 16 17 19 18 17 25 21 19 20 21 26 31 32 32 32 33 32 35 34 25 18 19 18 18 15 14 19 15 17 18 16 18 16 14 14 15 15 17 10 6 4 2 6 9 12 10 6 11 11 13 11 13 16 22 27 30 32 34 35
6 7 7 7 6 6 5 5 6 7 9 11 14 15 16 17 18 16 12 13 13 14 15 16 17 18 19 18 18 18 16 18 18 20 21 19 19 18 18 18 18 22 29 31 32 35 30 22 19 18 18 15 21 17 20 20 21 19 19 21 19 17 17 16 13 11 9 6 9 10 13 10 6 9 13 12 11 14 16 20 28 31 32 34 35
6 6 6 6 6 5 4 5 5 7 8 13 14 16 16 17 18 17 12 12 13 13 14 17 16 15 17 19 18 20 22 20 19 20 19 19 18 18 18 18 18 19 20 19 18 17 18 17 22 22 21 21 20 23 20 20 19 19 17 18 19 18 18 18 17 14 12 9 10 8 11 7 3 9 13 12 12 14 17 22 28 31 33 34 36
5 5 5 5 5 5 5 5 6 7 8 13 14 15 16 17 19 12 11 12 11 12 15 15 16 18 17 16 20 19 17 21 23 32 28 22 19 20 20 19 18 18 20 21 28 28 24 22 21 24 20 22 24 22 20 19 18 18 17 17 17 18 18 17 17 12 11 7 9 10 8 7 6 9 12 11 11 14 18 16 25 32 33 34 36
5 5 5 5 4 4 4 5 6 7 7 11 13 14 15 17 15 11 11 11 12 15 14 15 18 17 17 18 16 20 21 18 26 30 32 29 20 19 19 19 18 17 18 17 26 34 36 38 39 40 40 40 38 38 36 38 28 21 16 18 20 15 15 16 14 10 11 7 7 9 6 9 6 7 11 11 11 15 17 14 16 29 33 35 37
5 5 5 5 4 4 4 5 6 6 7 10 14 14 16 17 16 11 11 12 13 12 12 16 13 13 17 27 26 20 21 21 27 31 33 27 19 18 19 20 21 20 17 14 15 18 30 34 35 34 34 36 36 35 35 36 37 30 19 20 17 14 17 16 16 11 9 8 7 4 6 9 8 5 8 9 11 13 16 13 17 23 33 32 38
4 4 5 4 3 3 4 5 9 8 7 8 12 13 16 17 15 11 12 12 12 13 15 14 16 16 15 19 27 26 23 25 32 31 32 27 20 18 19 20 20 20 17 16 17 17 16 17 20 22 23 25 22 20 21 33 35 32 23 22 17 16 18 16 14 11 11 11 8 7 7 0 4 5 4 8 10 13 12 12 15 18 20 21 26
Wind_Direction
44 28 13 21 2 6 354 4 350 355 351 346 350 343 337 336 334 335 332 328 326 326 327 320 317 318 313 309 305 304 301 297 296 295 290 289 290 287 289 287 282 284 284 284 284 283 283 282 281 281 278 276 276 280 281 277 275 274 269 266 262 256 249 245 238 228 218 219 226 228 227 216 219 214 208 208 206 206 202 189 192 187 184 189 195
44 14 16 12 359 1 357 358 348 353 352 343 345 337 330 323 324 322 322 322 320 316 316 313 312 310 308 306 303 301 298 296 295 295 293 289 286 285 280 276 274 279 283 283 283 283 282 281 280 279 279 278 276 274 275 278 279 276 274 269 265 260 252 245 239 223 217 217 215 220 223 217 220 220 212 208 205 208 204 193 189 185 183 188 193
37 23 10 4 359 358 351 350 344 348 347 336 336 327 317 310 314 312 312 311 306 309 309 308 307 304 304 303 301 298 297 296 293 292 291 288 288 288 286 280 274 267 270 277 279 280 280 281 280 280 279 278 277 276 274 273 272 276 278 276 269 264 260 246 239 231 220 218 211 221 219 220 221 216 214 212 212 212 211 202 191 188 181 185 190
66 40 9 357 357 353 340 346 336 338 340 333 324 314 303 297 297 301 298 294 301 301 302 302 303 303 305 302 304 302 298 298 294 291 289 288 284 286 286 282 277 270 266 270 276 279 280 281 282 281 280 279 277 275 275 273 272 271 275 276 275 270 261 258 247 238 231 217 209 216 221 218 217 214 221 214 212 211 205 200 195 192 184 184 189
53 41 10 352 353 339 335 328 321 337 329 320 313 305 303 303 305 304 299 305 299 301 303 301 304 304 304 304 306 302 300 300 297 293 289 288 287 285 283 283 282 279 270 263 265 273 278 281 282 283 282 282 281 279 276 274 273 270 267 272 274 272 269 260 249 238 236 233 220 209 218 218 215 215 218 213 211 207 202 199 197 192 186 187 190
40 33 12 347 335 318 319 313 318 336 322 314 314 314 305 304 309 311 311 307 309 310 310 304 303 304 304 305 302 301 302 296 294 291 288 284 285 282 282 283 285 285 285 279 273 269 273 277 280 282 282 283 282 282 280 276 275 274 272 269 271 271 270 266 259 245 234 232 227 221 213 218 219 217 213 209 213 204 201 195 193 189 184 188 192
45 25 355 331 313 308 305 304 334 329 317 316 312 305 299 306 317 315 312 311 312 311 309 306 304 304 301 302 299 301 298 294 291 290 288 287 283 281 280 281 282 285 286 289 283 276 270 274 280 281 283 283 285 284 284 283 278 275 273 271 268 270 270 268 265 255 242 237 238 227 221 221 221 223 213 209 208 204 201 196 189 189 186 186 191
59 32 308 316 300 297 299 320 330 320 318 311 301 300 307 311 309 309 313 313 314 311 310 305 305 305 303 298 296 295 294 290 288 284 283 284 282 281 281 280 282 284 290 289 286 282 273 266 268 271 273 276 279 279 278 279 280 276 274 272 271 268 268 268 264 264 255 244 237 230 220 218 216 210 208 216 213 204 202 195 188 191 190 187 190
79 288 268 279 290 296 304 320 328 320 309 305 298 299 310 309 304 307 308 308 311 308 309 308 307 303 301 294 290 288 284 282 280 280 282 276 277 278 279 277 280 278 279 278 280 282 281 274 265 263 263 264 269 273 275 276 276 277 274 271 269 269 269 267 267 265 262 247 235 234 228 225 222 217 214 211 201 202 203 197 192 185 186 185 188
175 261 288 296 293 291 302 313 311 305 300 297 297 301 295 294 298 305 309 307 305 308 306 303 301 298 292 291 287 283 278 275 273 272 273 273 268 269 274 281 281 281 277 276 280 283 286 283 277 269 259 253 255 263 270 274 275 274 275 273 270 268 266 267 267 265 261 254 242 234 232 230 228 226 226 222 213 203 203 192 188 182 182 185 189
191 254 288 307 302 306 303 305 300 290 289 293 297 298 291 290 298 300 297 293 294 293 291 294 294 292 288 284 281 273 270 267 269 269 264 264 269 271 272 274 272 271 274 275 275 280 282 284 285 289 285 272 266 273 277 277 277 278 277 277 275 270 267 265 265 264 261 254 245 240 232 231 231 227 223 219 214 209 199 188 185 179 184 183 190
202 300 292 289 300 304 304 296 284 276 280 288 294 295 301 303 296 297 296 289 282 281 289 297 296 290 283 276 271 275 270 267 267 263 262 264 271 276 274 271 273 273 274 277 278 279 280 280 281 282 282 279 275 270 271 272 270 270 272 272 275 275 271 268 264 263 262 258 246 243 241 230 228 229 225 226 222 207 195 186 181 181 184 187 187
222 246 270 283 283 282 280 273 265 269 275 279 285 290 292 290 290 287 288 288 285 288 294 301 299 293 287 288 285 271 262 262 260 255 258 269 265 268 268 272 275 277 282 285 284 281 282 282 280 279 279 280 280 276 270 266 262 265 267 272 271 270 273 269 265 263 261 259 253 239 240 245 235 227 226 224 223 226 204 181 182 183 187 190 188
215 241 259 267 273 278 274 273 273 272 277 282 282 281 281 278 279 285 276 283 287 292 293 300 297 317 322 316 287 267 273 269 262 271 267 254 262 269 273 276 279 286 287 286 283 280 283 283 281 279 277 279 279 279 279 273 264 262 276 281 283 281 275 272 267 262 261 261 257 250 237 235 240 235 225 216 210 210 211 197 186 186 189 189 189
209 218 242 255 261 265 265 272 276 276 280 279 280 282 281 279 277 276 290 282 282 278 273 276 300 311 297 288 317 328 310 267 236 335 348 326 304 287 284 283 283 282 282 280 281 283 281 278 278 280 288 291 292 291 287 282 277 295 305 301 296 293 291 283 277 271 265 259 257 254 247 239 234 236 233 221 210 212 214 203 193 189 187 190 189
200 216 229 235 245 257 270 272 275 273 274 280 280 279 279 275 271 273 280 286 282 289 285 286 285 317 322 333 305 301 309 327 338 293 287 273 265 269 271 272 274 280 289 283 284 284 281 284 286 285 283 282 279 275 273 273 277 277 274 276 277 278 279 277 272 275 272 263 258 257 253 244 239 235 234 227 212 210 212 212 202 189 189 188 188
205 221 235 245 250 253 260 271 274 274 275 275 274 273 273 273 276 273 267 276 288 287 286 274 268 253 270 312 318 300 284 309 335 299 238 268 282 298 283 278 276 274 269 272 274 274 282 283 284 285 284 278 279 281 280 278 279 280 268 254 254 259 265 277 282 276 270 268 263 260 258 250 242 238 236 233 226 214 210 207 199 196 193 191 188
214 224 233 244 247 247 250 260 267 269 265 268 274 276 272 268 265 267 272 269 277 289 287 277 264 257 246 239 240 271 307 311 323 305 311 275 273 259 272 268 271 273 270 270 272 277 278 281 280 278 279 283 285 283 279 276 273 269 269 273 269 273 282 287 281 277 279 281 276 264 258 259 247 239 237 236 232 222 213 211 209 200 195 193 187
215 219 231 234 242 248 251 254 260 265 268 270 269 270 270 269 269 262 266 277 277 280 286 296 291 262 249 246 249 260 267 289 295 310 305 301 222 274 274 264 266 267 269 268 271 275 276 277 278 280 282 280 278 278 279 276 272 268 266 265 264 264 263 259 269 275 271 272 277 279 270 257 257 249 239 234 234 231 215 206 212 211 202 193 185
216 219 223 229 239 247 250 254 257 262 264 265 266 269 271 270 265 266 266 263 265 269 285 288 288 291 283 275 271 265 259 260 262 272 288 301 300 257 255 267 269 262 271 276 277 272 274 273 278 282 285 284 288 286 284 282 282 279 275 269 269 265 257 254 255 267 272 266 268 273 275 267 257 257 247 237 233 234 229 217 207 207 205 196 191
221 227 224 232 238 248 254 257 259 264 262 266 264 264 268 271 272 269 267 269 270 276 279 279 282 282 291 280 276 269 269 263 261 259 263 290 290 291 284 282 277 274 273 274 271 275 281 282 281 280 279 282 279 277 278 280 281 280 273 268 265 264 268 271 267 261 264 270 266 267 271 273 267 258 257 245 236 233 229 224 214 202 198 194 193
211 212 220 225 236 245 251 256 261 262 263 264 266 268 269 269 266 267 268 270 270 269 267 274 275 276 272 278 277 277 273 269 261 259 262 251 270 296 299 298 292 280 280 284 282 278 276 272 275 275 274 273 280 284 283 281 281 279 276 275 272 269 265 266 266 265 263 264 266 264 267 268 272 272 262 257 245 237 234 225 222 211 203 194 192
211 218 217 226 238 245 252 260 266 270 267 268 265 267 270 274 275 272 268 266 268 268 270 268 268 266 266 263 264 265 266 270 273 272 274 276 281 279 289 295 292 290 275 263 274 275 270 267 267 272 276 275 273 273 275 278 278 276 280 281 277 270 267 262 259 265 271 277 279 275 268 266 266 268 271 263 257 240 236 232 224 215 205 201 196
215 221 226 228 246 255 259 267 269 266 262 262 267 271 276 277 275 270 269 268 267 268 267 265 261 264 265 261 261 262 262 263 267 269 265 267 272 278 285 301 298 280 283 278 269 272 273 270 267 268 269 273 273 270 268 271 271 272 270 270 271 271 267 264 262 265 268 270 270 272 270 267 265 263 265 268 261 254 240 231 227 220 213 202 200
223 232 240 244 263 263 268 269 268 266 271 274 276 278 278 274 270 271 268 268 267 266 265 263 265 265 266 265 265 262 262 261 265 263 264 269 266 274 276 284 282 295 296 293 281 271 257 261 269 265 267 268 269 270 270 268 269 269 272 270 266 262 257 257 259 258 256 256 256 258 265 264 262 261 259 262 263 256 251 239 229 225 219 208 202
241 250 266 278 265 269 272 271 269 269 270 272 272 272 271 269 269 269 271 270 270 267 266 266 264 263 261 262 259 259 260 262 262 263 264 263 261 260 275 276 275 281 290 296 286 286 265 243 248 256 256 257 262 266 268 267 265 264 262 262 264 263 262 261 259 260 259 259 258 257 258 261 259 257 256 259 261 258 250 248 235 228 225 222 207
238 249 256 262 270 272 270 272 271 271 274 274 274 272 269 271 272 274 274 272 271 270 269 268 266 262 259 258 263 261 261 260 259 260 261 256 257 261 264 276 280 274 281 282 289 272 274 273 265 263 260 264 265 267 267 269 273 276 276 276 275 274 268 262 257 254 255 254 253 253 253 255 257 256 254 253 258 261 253 246 242 233 227 221 213
242 253 256 259 263 267 268 266 268 270 272 273 274 273 274 273 274 271 270 269 272 270 269 268 266 265 264 260 259 258 258 259 257 259 258 260 261 262 261 264 267 277 278 283 281 277 283 286 274 263 264 259 262 265 267 268 267 266 268 268 268 267 265 263 260 257 256 254 254 252 251 252 252 252 252 252 254 256 256 247 241 235 226 216 209
235 241 256 257 258 260 264 267 267 267 268 270 272 273 274 274 272 272 272 272 272 271 271 270 270 272 269 265 263 263 261 259 259 257 258 261 261 260 258 256 256 261 273 276 276 283 286 281 285 274 276 283 281 279 274 270 279 293 291 286 283 277 266 257 251 251 254 258 256 254 250 249 250 248 248 249 250 252 254 248 240 232 222 210 206
221 231 241 250 256 257 257 261 263 265 268 270 271 271 272 271 271 271 271 274 273 271 269 269 270 269 268 267 266 268 266 264 263 262 261 264 264 261 260 256 253 254 258 264 271 271 286 284 274 281 283 286 283 278 279 283 284 287 291 288 285 282 287 293 295 289 279 269 267 270 272 265 253 246 245 246 246 249 250 249 240 231 223 213 209
217 228 236 245 247 253 257 265 267 267 269 270 271 271 270 271 273 273 273 271 270 272 271 272 271 269 269 269 267 270 273 270 271 269 268 268 265 263 260 259 255 253 258 261 269 267 269 282 276 274 283 280 281 287 287 284 286 286 281 282 282 284 286 283 280 278 275 274 270 265 263 266 267 253 243 244 244 246 247 247 241 231 224 215 211
221 226 234 240 250 252 257 263 264 266 265 267 267 267 269 269 272 274 276 275 274 272 274 272 273 272 272 272 272 272 274 273 271 269 269 266 265 262 262 261 260 257 259 262 262 268 262 269 275 278 276 281 284 284 281 280 280 279 278 274 271 277 282 278 268 266 268 266 262 260 258 259 263 265 257 248 247 246 247 246 242 232 227 217 214
214 224 229 238 244 250 255 257 260 261 263 268 270 269 269 271 271 272 275 274 275 273 273 273 268 271 271 273 272 274 277 274 272 274 272 270 265 263 263 263 263 264 262 262 263 269 267 260 269 275 279 286 283 276 276 274 276 277 272 269 268 266 264 262 264 264 265 261 254 253 252 254 258 260 260 260 256 251 249 246 241 234 225 222 216
215 226 232 237 242 247 250 255 256 260 263 266 268 269 270 274 274 273 275 278 277 276 276 275 274 270 272 273 276 279 277 275 276 275 272 269 268 268 268 267 264 262 263 265 266 268 272 271 271 272 277 275 278 279 283 287 283 279 278 280 282 277 269 271 271 268 266 267 257 251 251 253 255 254 256 255 256 256 253 247 242 233 222 219 219
212 218 227 232 239 243 251 253 257 261 264 266 266 267 269 272 275 274 274 275 275 275 274 273 274 276 276 275 276 279 279 279 277 275 274 272 273 273 269 267 266 265 262 262 269 268 269 271 273 280 278 278 280 281 277 276 276 272 270 268 265 265 274 277 276 268 267 268 268 259 252 251 253 257 257 254 253 254 254 250 241 233 220 213 213
211 217 222 232 238 245 250 253 254 256 258 264 269 269 268 270 272 274 274 272 272 273 273 275 276 276 275 278 278 281 281 280 279 277 275 273 272 272 272 269 266 266 268 269 264 265 269 272 271 272 283 286 275 274 279 280 278 274 266 268 266 262 258 254 254 261 263 262 263 263 257 253 255 258 259 256 253 253 253 252 243 230 218 211 207
209 216 225 230 240 246 249 253 256 259 263 266 269 268 269 267 268 272 273 271 269 271 272 273 274 274 274 274 278 279 281 279 277 274 273 274 273 272 272 270 269 270 270 267 267 267 270 272 279 280 280 274 275 278 278 276 274 271 272 268 269 268 265 262 265 265 267 265 260 254 250 250 253 257 258 257 254 253 253 253 245 230 216 208 204
208 220 229 237 239 246 250 255 256 261 264 265 264 266 267 269 268 269 271 273 273 272 272 272 273 273 275 276 277 281 281 275 272 274 272 270 271 270 270 269 269 268 267 267 269 270 267 267 271 277 274 274 277 273 275 274 284 286 281 271 261 257 255 257 255 257 257 257 251 248 244 245 248 252 254 254 251 250 251 251 247 231 216 206 202
206 220 228 235 243 247 253 255 257 260 262 263 261 264 265 267 269 268 273 276 275 275 276 280 281 282 281 280 280 274 272 270 269 270 270 268 267 268 265 267 265 265 266 266 264 263 264 267 271 271 274 273 272 280 277 274 269 265 269 272 273 271 271 262 261 257 256 251 247 245 246 247 253 257 255 249 248 246 246 247 248 233 216 207 202
206 220 227 234 241 247 251 255 258 258 260 259 262 264 268 270 272 273 275 281 284 285 282 279 279 278 276 273 272 269 268 267 266 264 263 265 263 268 264 264 264 265 264 264 264 263 263 265 266 269 269 275 276 275 280 278 276 271 259 256 261 268 264 260 254 257 253 250 255 257 249 249 252 254 256 255 254 251 248 247 246 235 216 205 201
206 216 229 235 244 249 249 250 254 256 256 258 257 260 266 273 275 283 285 283 281 282 283 282 281 277 274 275 272 271 265 267 269 269 267 265 260 258 258 255 259 260 262 260 261 261 264 262 267 265 263 269 268 278 283 279 278 280 280 272 269 265 266 264 256 248 250 255 254 259 264 254 263 264 264 258 246 243 245 242 244 231 214 202 199
206 219 225 237 242 245 249 250 253 255 256 255 257 262 268 276 283 285 288 286 286 283 284 285 282 278 279 278 274 273 275 276 276 276 275 272 269 267 266 262 257 256 255 254 252 246 254 254 249 261 256 263 266 267 272 268 271 277 284 287 287 285 281 267 260 247 240 241 248 257 267 272 268 266 259 261 264 244 245 239 232 224 209 198 195
209 218 229 234 234 237 241 250 257 259 261 258 264 268 276 283 288 290 288 288 283 285 286 285 287 288 289 282 281 283 283 281 280 278 278 276 275 272 269 268 267 261 256 254 248 246 242 248 251 247 255 256 264 270 271 277 274 274 275 278 281 283 276 267 260 254 245 266 288 310 291 294 300 289 279 259 253 256 245 235 224 210 205 196 191
209 214 227 230 234 237 240 247 256 262 266 267 273 278 285 289 291 292 292 292 292 290 288 287 289 291 288 288 285 283 282 281 281 283 280 278 277 275 274 272 270 267 264 260 260 258 256 260 261 256 257 264 262 266 272 273 280 288 283 280 277 278 283 277 267 260 281 29 334 307 290 295 293 274 277 272 267 260 247 234 218 207 198 195 190
204 218 223 228 231 234 241 247 258 266 268 271 274 282 289 294 296 298 294 291 291 289 290 289 289 288 287 289 292 289 289 287 285 281 281 280 277 276 276 275 275 272 271 268 265 263 262 263 263 263 254 263 266 265 266 270 271 273 281 284 286 288 285 285 273 281 297 22 312 294 290 289 283 279 277 272 268 267 257 232 216 202 197 192 191
214 223 224 227 232 235 241 256 266 269 271 275 281 289 295 300 303 302 295 294 292 289 285 285 287 289 288 286 287 286 282 286 282 281 281 279 281 281 279 278 277 278 277 273 271 269 266 265 265 266 266 263 267 271 270 267 269 268 270 273 274 275 280 284 300 299 297 313 287 291 283 283 256 275 278 280 275 273 263 238 211 201 194 190 187
214 219 221 223 228 228 243 250 255 265 267 273 284 295 302 305 306 309 305 299 290 280 283 283 278 274 284 284 280 285 286 284 283 278 279 277 275 273 271 268 266 266 268 269 269 266 264 260 260 261 263 259 261 263 262 261 259 263 263 269 275 279 282 285 283 276 280 267 259 245 262 284 280 285 280 285 290 280 267 232 205 197 192 188 185
215 222 229 229 230 231 236 245 254 264 270 280 294 300 304 309 313 314 305 296 289 288 287 280 276 279 272 277 280 273 277 278 278 284 281 283 278 274 271 268 266 264 264 265 267 268 266 265 260 261 259 257 252 254 254 256 256 258 260 260 257 256 262 266 267 274 269 258 214 222 255 279 264 272 282 287 289 283 257 225 198 193 190 185 184
217 222 226 232 232 233 240 245 257 268 277 284 297 306 312 316 318 311 304 297 296 294 287 288 287 280 277 276 282 285 283 286 286 286 291 288 282 276 271 268 265 263 264 265 266 266 267 269 268 264 263 264 256 254 251 255 256 258 263 267 265 268 268 264 265 264 266 258 223 217 254 278 270 266 282 280 281 273 258 217 193 191 187 184 182
221 220 230 239 237 237 245 252 261 271 278 290 300 309 316 317 318 314 310 308 301 293 290 294 286 290 289 295 300 299 296 293 293 294 296 298 291 283 276 271 269 263 260 257 255 256 257 262 266 268 270 268 269 267 262 261 262 258 247 252 255 256 258 258 262 259 269 250 242 208 256 249 274 271 281 289 283 264 249 222 189 189 187 185 181
232 232 234 241 239 253 254 254 267 271 275 285 305 315 317 319 319 314 311 305 297 298 300 300 303 297 297 302 302 299 297 295 297 298 299 299 295 292 289 286 282 277 275 273 268 269 272 272 271 271 270 267 264 262 260 260 259 257 249 250 257 254 257 258 256 259 261 251 243 186 228 217 316 285 328 301 285 278 237 212 191 184 184 182 181